Location: Bezu
(49.2952°N, 1.7040°E)
Time: 15:06:17
(UTC+00:00)

Daily predictions for brighter satellites

Satellite Brightness Start Highest point End
(mag) Time Altitude Azimuth Time Altitude Azimuth Time Altitude Azimuth
IRS-1A Rocket 4.4 20:23:46 10° SSE 20:29:23 71° ENE 20:35:10 10° NNW
Okean-O 2.9 20:25:18 10° S 20:29:41 73° WSW 20:34:07 10° NNW
ARGOS Delta rocket 4.4 20:25:45 10° S 20:30:22 63° W 20:35:20 10° NNW
Gbstr 26 Del rocket 3.2 20:27:45 10° WSW 20:32:01 86° SSE 20:37:16 10° ENE
Timation 2 Rocket 4.4 20:26:35 10° S 20:32:27 41° ESE 20:38:07 10° NE
CZ-4C R/B 3.3 20:29:40 10° NNE 20:33:18 50° E 20:36:46 10° S
Cosmos 1125 Rocket 4.4 20:30:13 10° SSE 20:34:44 29° E 20:39:16 10° NE
USA 276 1.9 20:36:25 10° W 20:39:20 78° SSW 20:42:21 10° ESE
Cosmos 2084 3.6 20:38:48 10° SSW 20:42:44 42° SE 20:46:30 10° NE
SPOT 3 Rocket 4.0 20:39:03 10° SE 20:44:04 50° ENE 20:49:06 10° N
NOSS 2-2 (E) 3.0 20:47:09 10° SSW 20:50:17 44° SE 20:53:18 10° NE
NOSS 2-2 (C) 2.6 20:47:26 10° SW 20:50:37 72° SE 20:53:45 10° NE
In-Cosmos 22 Rocket 4.4 20:47:13 10° S 20:52:49 59° E 20:58:20 10° NNE
Landsat 4 4.5 20:49:58 10° SE 20:52:58 32° ENE 20:56:04 10° N
Nadezhda 3 Rocket 4.0 20:46:56 10° N 20:53:08 83° E 20:59:17 10° S
BREEZE-M DEB (TANK) 3.3 20:51:18 10° W 20:54:01 67° SSW 21:01:08 10° ESE
Cosmos 1544 Rocket 4.4 20:50:23 10° N 20:54:22 34° ENE 20:58:03 11° SE
NOSS 2-3 (E) 3.3 20:52:54 10° SSW 20:56:27 52° SE 21:00:24 10° NE
Cosmos 1844 4.0 20:51:25 10° SW 20:57:12 75° WNW 21:03:00 10° NNE
Terra 1.8 20:53:11 10° SSE 20:57:54 85° ENE 21:02:39 10° NNW
Meteor 1-21 Rocket 4.3 20:58:44 10° SSW 21:04:17 82° WNW 21:09:52 10° N
USA 305 4.1 21:01:25 10° WNW 21:05:00 37° N 21:08:16 10° ENE
GP-B 4.3 21:02:50 10° N 21:07:00 42° W 21:11:09 10° SSW
ATLAS CENTAUR R/B 1.6 21:03:21 10° NW 21:07:17 62° SW 21:10:52 13° SSE
Cosmos 1437 Rocket 3.9 21:07:19 14° SE 21:09:34 24° E 21:12:32 10° NE
Cosmos 1833 Rocket 3.0 21:07:56 10° NNW 21:13:34 61° ENE 21:18:22 14° SE
Meteor 2-1 Rocket 4.2 21:07:54 10° NNW 21:13:35 87° E 21:18:58 11° S
NOSS 2-3 (C) 3.1 21:10:34 10° SW 21:14:11 76° SE 21:18:16 10° NE
Cosmos 1455 Rocket 3.6 21:10:35 10° NNW 21:14:55 58° W 21:19:11 10° S
Cosmos 1975 Rocket 3.1 21:14:15 10° S 21:18:43 87° W 21:23:14 10° N
Cosmos 1025 Rocket 4.2 21:15:11 10° SSW 21:19:14 43° WNW 21:23:19 10° N
Cosmos 44 3.9 21:14:42 10° S 21:19:33 38° ESE 21:24:14 10° NE
Orbus 7S? 3.9 21:17:13 10° WNW 21:19:38 27° SW 21:21:20 15° S
Lacrosse 5 2.4 21:16:37 10° WSW 21:21:38 62° NNW 21:26:40 10° NE
ERS-1 Rocket 3.7 21:18:50 10° S 21:23:41 50° W 21:28:35 10° NNW
Spot 2 Rocket 3.8 21:19:35 10° S 21:24:39 67° WSW 21:29:45 10° NNW
Cosmos 220 Rocket 3.9 21:20:53 10° NNW 21:25:02 81° ENE 21:28:09 17° SSE
Cosmos 2082 Rocket 3.6 21:21:40 10° NNW 21:26:32 28° NE 21:31:20 10° ESE
NOSS 2-2 (D) 2.9 21:24:51 10° SW 21:28:04 74° NW 21:31:14 10° NE
ATLAS 5 CENTAUR R/B 3.3 21:25:13 10° W 21:28:15 30° NW 21:31:41 10° NNE
USA 307 3.9 21:24:31 10° W 21:28:16 42° N 21:31:51 10° ENE
Cosmos 2218 Rocket 4.4 21:23:42 13° SSE 21:28:48 47° E 21:34:40 10° NNE
Landsat 5 4.0 21:26:44 10° NNE 21:30:59 45° E 21:34:10 16° SSE
Cosmos 1844 Rocket 4.2 21:28:14 10° WSW 21:33:26 39° NW 21:38:39 10° NNE
Cosmos 2278 Rocket 3.2 21:31:13 16° SSE 21:34:26 27° ESE 21:39:07 10° NE
Cosmos 1606 2.8 21:31:47 10° NNW 21:35:19 62° W 21:38:05 15° S
MetOp-A 3.7 21:35:02 18° SSE 21:38:24 67° ENE 21:42:42 10° N
Cosmos 2298 Rocket 4.2 21:33:31 10° S 21:38:41 54° ESE 21:43:53 10° NNE
Cosmos 2341 Rocket 4.0 21:33:38 11° S 21:39:42 71° E 21:46:02 10° NNE
Cosmos 614 Rocket 4.1 21:35:59 10° NNW 21:41:03 66° ENE 21:44:35 20° SE
Meteor 1-11 4.5 21:37:12 10° SSW 21:42:56 74° WNW 21:48:38 10° N
H-2A R/B 4.4 21:44:33 10° E 21:46:54 16° ENE 21:49:17 10° NNE
Cosmos 1869 3.9 21:43:26 10° NNW 21:47:08 50° W 21:50:08 15° SSW
CZ-4C R/B 4.1 21:43:53 10° NW 21:49:49 36° NNE 21:57:03 10° E
Cosmos 1536 Rocket 3.7 21:47:10 20° SSE 21:49:56 55° E 21:54:10 10° NNE
Ariane Rocket 3.9 21:47:25 11° S 21:52:08 43° W 21:56:58 10° NNW
ISS -3.1 21:49:50 10° WNW 21:53:07 54° N 21:56:23 10° E
COSMOS 2406 4.3 21:51:04 10° NNW 21:56:16 36° NE 22:00:48 13° ESE
USA 290 3.8 21:58:15 20° E 21:58:15 20° E 22:00:35 10° NE
ARIANE 5 R/B 3.2 21:58:54 22° SE 22:01:25 46° ENE 22:05:42 10° N
GENESIS II 4.2 21:58:30 10° NW 22:02:01 56° SW 22:03:31 30° S
BREEZE-M DEB (TANK) 3.7 21:53:28 10° WNW 22:04:04 44° SW 22:06:11 25° SSE
Cosmos 1727 Rocket 4.2 21:58:23 10° N 22:04:41 60° ENE 22:08:48 22° SSE
ATLAS 3B R/B 3.7 22:01:26 20° SSE 22:04:43 28° ESE 22:10:54 10° NE
Cosmos 2228 3.3 22:01:17 10° NNW 22:05:25 59° W 22:08:06 21° S
Geosat 4.3 22:05:00 10° NNE 22:10:00 69° NW 22:14:58 10° SW
Cosmos 1943 Rocket 3.0 22:08:20 23° SSE 22:10:46 33° ESE 22:15:45 10° NE
USA 276 3.5 22:10:52 10° W 22:13:09 22° SW 22:13:09 22° SW
Cosmos 1821 Rocket 4.1 22:09:49 21° SSE 22:14:01 62° E 22:20:18 10° NNE
Gbstr 26 Del rocket 3.8 22:14:14 10° W 22:18:56 67° N 22:24:48 10° E
Cosmos 2058 4.3 22:19:03 21° ESE 22:20:07 23° E 22:23:24 10° NE
Cosmos 2150 Rocket 4.3 22:14:57 10° SSW 22:20:22 74° WNW 22:25:51 10° NNE
ALOS 2 4.0 22:19:19 18° ESE 22:21:37 29° ENE 22:25:24 10° N
Cosmos 2084 Rocket 3.5 22:21:27 10° NW 22:25:25 64° NE 22:27:21 28° ESE
NOSS 3-1 (C) 3.0 22:24:27 12° SSW 22:28:58 71° SE 22:34:53 10° NE
SeaSat 1 3.0 22:26:56 21° ESE 22:30:02 51° NE 22:34:48 10° NNW
Cosmos 1812 2.7 22:32:00 10° N 22:35:31 58° ENE 22:36:28 41° SE
Terra 4.3 22:33:53 10° WSW 22:36:08 13° W 22:38:23 10° WNW
Cosmos 2366 rocket 4.4 22:30:38 12° SSW 22:36:16 58° WNW 22:42:21 10° N
USA 305 3.7 22:34:20 10° WNW 22:37:45 38° N 22:40:34 11° E
Cosmos 1238 Rocket 3.9 22:38:03 10° NNE 22:41:01 27° ENE 22:42:01 24° ESE
Aureole 2 4.0 22:41:11 52° SSW 22:41:51 83° ESE 22:45:14 10° NNE
BREEZE-M R/B 3.8 22:37:50 10° WSW 22:42:09 75° SSE 22:56:37 10° ENE
PSLV R/B 3.8 22:39:33 10° NNE 22:43:32 65° ESE 22:44:50 39° S
Cosmos 1437 Rocket 4.5 22:42:04 10° SW 22:45:07 26° WNW 22:48:14 10° N
Cosmos 1892 Rocket 3.6 22:45:05 35° SSE 22:46:47 64° E 22:51:12 10° NNE
Cosmos 1140 Rocket 3.8 22:47:07 10° NNW 22:52:12 59° ENE 22:54:48 28° SE
Cosmos 1833 Rocket 4.2 22:52:31 10° NW 22:57:03 26° WSW 23:00:03 17° SW
MINOTAUR 4 R/B 3.5 22:54:18 10° NNE 22:57:02 64° E 22:57:02 64° E
Cosmos 2239 Rocket 4.4 22:55:30 26° S 22:59:10 89° E 23:05:27 10° N
Cosmos 44 4.5 22:55:41 10° WSW 23:00:42 45° NW 23:05:30 10° NNE
SL-08 R/B 4.4 22:57:34 27° S 23:01:09 90° WNW 23:07:18 10° N
BREEZE-M DEB (TANK) 3.5 22:58:28 10° W 23:01:21 77° SSW 23:09:00 10° ESE
USA 307 3.6 22:58:17 10° WNW 23:02:00 45° NNE 23:05:23 10° E
Cosmos-2242 3.9 23:00:27 10° N 23:04:23 37° ENE 23:05:51 28° ESE
Cosmos 2123 Rocket 4.0 22:58:14 10° N 23:04:33 79° E 23:07:51 30° SSE
Cosmos 1606 Rocket 4.4 23:01:11 10° NNW 23:05:15 40° W 23:07:01 27° SW
CENTAUR R/B 4.4 22:58:13 10° NW 23:05:16 38° NNE 23:13:26 10° E
Lacrosse 5 3.6 23:00:42 10° WNW 23:05:20 35° N 23:09:59 10° ENE
NOSS 3-1 (A) 3.0 23:03:57 30° SSW 23:06:24 64° SE 23:12:17 10° NE
Cosmos 1726 Rocket 4.0 23:03:17 10° NNW 23:07:30 51° W 23:09:05 33° SSW
NOSS 8 (F) 4.2 23:05:26 10° NW 23:08:31 85° SW 23:09:06 59° SSE
Cosmos 2082 Rocket 2.3 23:05:28 10° NNW 23:11:01 63° WSW 23:13:28 33° S
Cosmos 1515 4.2 23:11:03 10° N 23:14:21 39° ENE 23:14:57 36° ESE
Cosmos 2278 Rocket 2.7 23:12:59 12° SW 23:18:08 58° WNW 23:23:45 10° NNE
ULPM Upper Stage 2.7 23:15:23 10° NW 23:19:45 72° SW 23:20:59 45° SSE
Cosmos 2369 Rocket 3.5 23:19:37 22° SE 23:21:00 24° ESE 23:25:24 10° NE
PSLV R/B 4.1 23:17:05 10° NNE 23:21:15 45° E 23:22:20 37° SE
H-2A R/B 2.6 23:20:31 43° SSW 23:21:27 56° WSW 23:25:14 10° NNW
Cosmos 489 Rocket 4.4 23:24:24 32° S 23:27:26 70° ESE 23:33:38 10° NNE
ISS -4.0 23:26:41 10° WNW 23:30:01 83° SSW 23:30:09 79° SSE
USA 290 4.0 23:30:56 19° WSW 23:32:24 27° WNW 23:35:13 10° N
Cosmos 2058 Rocket 3.5 23:29:05 10° NNW 23:33:18 52° W 23:34:37 37° SW
Cosmos 1782 2.6 23:30:02 10° N 23:33:51 78° E 23:34:35 55° SSE
USA 229 DEB 4.1 23:32:18 31° SSE 23:34:16 39° ESE 23:40:24 10° NE
USA 229 4.1 23:32:27 31° SSE 23:34:24 39° ESE 23:40:31 10° NE
CRYOSAT 2 4.3 23:31:14 10° N 23:36:09 88° E 23:37:58 40° S
Cosmos 1862 4.1 23:35:38 32° ESE 23:36:12 34° E 23:39:41 10° NNE
Cosmos 1378 2.9 23:34:43 10° N 23:37:55 59° ENE 23:38:06 57° E
ARIANE 5 R/B 4.4 23:36:22 18° WSW 23:38:02 22° W 23:41:32 10° NW
Cosmos 482 Debris 4.3 23:33:49 10° W 23:38:25 72° NNW 23:41:45 10° ENE
CZ-4C R/B 3.0 23:32:05 10° NW 23:39:07 88° NE 23:45:35 19° SE
COSMOS 2455 4.1 23:34:15 10° NNW 23:39:53 38° NE 23:45:29 10° ESE
Meteor 2-2 Rocket 4.3 23:34:58 10° N 23:40:43 82° ENE 23:43:24 34° SSE
COSMOS 2406 3.6 23:35:18 10° NW 23:40:45 48° WSW 23:42:50 33° SSW
Cosmos 1934 Rocket 4.1 23:39:12 29° SSW 23:42:39 72° WNW 23:48:52 10° N
Cosmos 2221 3.9 23:41:17 10° N 23:45:01 29° ENE 23:46:52 21° ESE
Cosmos 2285 Rocket 4.1 23:45:20 10° NNW 23:51:48 73° ENE 23:55:34 26° SE
Cosmos 1943 Rocket 3.0 23:49:48 15° SW 23:54:20 49° NW 23:59:48 10° NNE
